Temp
-12 -12 -12 -12 -12 -12 -12 -12 -12 -12 -12 -13 -13 -14 -14 -14 -13 -13 -14 -14 -13 -13 -14 -14 -14 -14 -14 -14 -14 -14 -14 -14 -13 -14 -15 -16 -16 -16
-12 -12 -12 -12 -12 -12 -12 -12 -12 -13 -13 -13 -13 -13 -13 -14 -14 -14 -14 -13 -14 -14 -14 -14 -14 -14 -14 -14 -14 -14 -14 -14 -15 -15 -16 -16 -16 -16
-13 -13 -13 -12 -12 -12 -12 -13 -13 -13 -13 -13 -14 -14 -13 -14 -14 -14 -14 -13 -14 -14 -15 -14 -14 -15 -15 -14 -14 -14 -14 -15 -15 -16 -16 -16 -16 -16
-13 -13 -13 -13 -13 -13 -13 -14 -14 -13 -14 -14 -14 -14 -14 -15 -14 -14 -14 -14 -15 -15 -15 -15 -14 -14 -15 -14 -14 -15 -15 -16 -16 -16 -17 -16 -17 -17
-14 -14 -14 -14 -13 -14 -14 -14 -14 -14 -14 -15 -15 -14 -15 -14 -14 -14 -14 -15 -15 -15 -15 -15 -15 -15 -15 -15 -15 -16 -16 -17 -17 -17 -17 -17 -17 -17
-14 -14 -14 -14 -14 -13 -14 -14 -14 -14 -15 -15 -15 -15 -15 -15 -15 -15 -16 -15 -16 -16 -15 -16 -15 -16 -16 -17 -17 -17 -17 -17 -17 -17 -17 -18 -18 -18
-14 -14 -14 -14 -14 -14 -14 -15 -14 -14 -15 -15 -15 -15 -15 -16 -16 -16 -16 -16 -16 -16 -16 -16 -16 -17 -17 -18 -18 -18 -18 -17 -18 -18 -18 -18 -18 -19
-15 -15 -14 -15 -15 -15 -15 -15 -15 -15 -15 -15 -15 -16 -16 -17 -16 -16 -16 -16 -16 -16 -17 -17 -17 -18 -18 -18 -18 -18 -18 -18 -18 -18 -18 -19 -20 -20
-15 -15 -15 -15 -15 -15 -15 -15 -15 -15 -16 -16 -16 -17 -17 -17 -17 -17 -17 -17 -17 -17 -17 -18 -18 -18 -19 -19 -18 -18 -19 -19 -19 -19 -20 -20 -21 -21
-15 -16 -15 -15 -15 -15 -15 -16 -16 -16 -17 -17 -17 -17 -16 -17 -17 -17 -17 -17 -17 -18 -18 -18 -18 -19 -19 -19 -19 -19 -19 -20 -20 -21 -21 -22 -22 -23
-16 -16 -16 -16 -16 -15 -16 -17 -17 -17 -17 -17 -17 -17 -17 -18 -18 -17 -17 -18 -18 -19 -19 -18 -19 -19 -19 -20 -20 -20 -20 -20 -22 -22 -22 -23 -25 -26
-15 -16 -16 -16 -16 -16 -17 -17 -17 -17 -18 -17 -17 -17 -18 -18 -18 -18 -19 -19 -19 -19 -19 -19 -19 -19 -19 -21 -22 -22 -22 -22 -22 -23 -24 -26 -28 -28
-16 -16 -16 -16 -16 -17 -17 -17 -18 -18 -18 -17 -18 -18 -18 -18 -19 -19 -19 -19 -20 -20 -19 -19 -19 -20 -20 -20 -21 -22 -23 -23 -23 -25 -27 -28 -29 -30
-16 -16 -17 -17 -18 -17 -18 -19 -18 -18 -18 -18 -19 -19 -19 -19 -20 -20 -20 -20 -20 -20 -20 -20 -20 -21 -21 -22 -22 -23 -23 -24 -26 -27 -28 -29 -30 -31
-17 -17 -18 -18 -19 -19 -19 -18 -18 -18 -19 -19 -19 -19 -20 -20 -20 -20 -20 -20 -21 -21 -21 -21 -22 -22 -22 -23 -23 -23 -24 -26 -28 -28 -29 -30 -30 -31
-19 -19 -19 -19 -19 -19 -18 -18 -19 -19 -20 -20 -20 -20 -21 -21 -20 -20 -21 -21 -21 -22 -22 -22 -23 -23 -23 -23 -24 -26 -27 -28 -29 -29 -30 -30 -31 -32
-20 -19 -19 -19 -19 -19 -19 -20 -20 -20 -20 -20 -21 -21 -21 -21 -21 -21 -21 -22 -22 -22 -23 -23 -24 -23 -24 -25 -27 -29 -29 -29 -30 -30 -30 -30 -32 -33
-20 -20 -20 -20 -20 -20 -20 -20 -20 -21 -21 -21 -21 -21 -21 -22 -22 -22 -22 -22 -23 -23 -23 -23 -24 -24 -27 -29 -30 -30 -30 -30 -30 -31 -31 -31 -32 -35
-20 -20 -20 -20 -20 -21 -21 -21 -21 -21 -21 -21 -21 -22 -22 -22 -22 -22 -23 -23 -23 -23 -24 -24 -25 -27 -28 -29 -30 -31 -30 -31 -31 -32 -32 -33 -34 -35
-21 -21 -21 -21 -21 -21 -22 -21 -21 -21 -21 -22 -22 -22 -22 -22 -23 -23 -23 -23 -24 -24 -25 -27 -28 -29 -29 -29 -30 -31 -32 -31 -31 -32 -33 -35 -36 -36
-21 -21 -21 -22 -22 -22 -22 -21 -22 -22 -22 -22 -22 -22 -22 -23 -23 -23 -24 -24 -24 -25 -27 -29 -29 -30 -30 -30 -31 -31 -32 -33 -33 -33 -33 -35 -36 -36
-21 -22 -22 -22 -22 -22 -22 -22 -22 -22 -22 -22 -22 -23 -23 -23 -23 -24 -24 -25 -26 -28 -29 -30 -30 -31 -31 -31 -32 -32 -33 -34 -35 -35 -35 -35 -35 -36
-22 -22 -22 -22 -22 -22 -22 -22 -23 -23 -23 -22 -23 -23 -23 -23 -24 -25 -25 -27 -29 -30 -30 -31 -31 -32 -32 -32 -32 -33 -34 -35 -36 -36 -36 -35 -35 -35
Height
5742 5745 5748 5751 5753 5755 5756 5756 5755 5754 5754 5754 5753 5749 5746 5745 5742 5737 5733 5728 5724 5720 5716 5712 5709 5706 5702 5698 5694 5689 5685 5681 5675 5668 5663 5658 5654 5652
5730 5733 5736 5739 5741 5743 5743 5743 5742 5742 5742 5741 5739 5737 5734 5731 5727 5722 5718 5714 5709 5705 5702 5699 5696 5693 5689 5685 5680 5677 5672 5665 5659 5651 5646 5642 5639 5635
5720 5724 5727 5729 5730 5730 5730 5730 5731 5730 5729 5726 5724 5721 5718 5716 5711 5707 5703 5700 5697 5692 5688 5686 5682 5678 5674 5670 5664 5659 5653 5646 5640 5635 5630 5627 5622 5616
5709 5712 5715 5717 5718 5719 5718 5717 5715 5716 5714 5712 5709 5709 5704 5700 5697 5693 5690 5685 5682 5679 5676 5671 5666 5661 5657 5651 5646 5640 5633 5627 5620 5613 5609 5605 5600 5594
5697 5700 5702 5706 5705 5705 5703 5703 5703 5701 5699 5697 5694 5689 5688 5685 5682 5679 5676 5672 5669 5666 5660 5656 5652 5644 5640 5634 5626 5620 5615 5609 5603 5597 5590 5584 5576 5569
5682 5686 5688 5690 5690 5691 5690 5690 5690 5689 5685 5682 5680 5678 5674 5671 5668 5666 5663 5659 5654 5651 5647 5643 5637 5629 5621 5615 5609 5604 5597 5590 5583 5576 5568 5562 5553 5545
5670 5673 5676 5677 5679 5679 5679 5679 5678 5675 5673 5670 5667 5663 5661 5659 5657 5653 5651 5647 5641 5639 5634 5624 5621 5613 5606 5598 5591 5584 5577 5570 5562 5553 5546 5536 5527 5518
5658 5661 5664 5666 5665 5664 5664 5663 5661 5659 5658 5655 5652 5651 5649 5646 5644 5641 5638 5634 5627 5622 5621 5610 5605 5599 5591 5583 5574 5565 5556 5548 5539 5530 5521 5511 5500 5490
5648 5650 5652 5653 5653 5652 5651 5650 5647 5645 5644 5643 5640 5639 5637 5635 5632 5628 5624 5619 5613 5607 5604 5599 5591 5582 5572 5562 5553 5544 5535 5527 5514 5504 5494 5484 5474 5464
5636 5638 5639 5640 5640 5640 5638 5635 5634 5632 5631 5631 5630 5628 5625 5622 5619 5614 5610 5605 5598 5590 5587 5583 5572 5565 5555 5542 5532 5522 5514 5503 5492 5481 5469 5458 5446 5436
5623 5624 5625 5627 5626 5625 5624 5623 5621 5620 5618 5618 5616 5613 5610 5607 5604 5600 5595 5590 5585 5576 5568 5564 5555 5549 5539 5524 5512 5500 5488 5478 5468 5456 5443 5429 5418 5411
5608 5611 5611 5612 5611 5612 5612 5611 5610 5609 5607 5605 5603 5599 5597 5594 5589 5583 5579 5575 5569 5562 5551 5549 5536 5527 5529 5512 5495 5481 5470 5455 5442 5430 5417 5404 5394 5389
5596 5596 5598 5598 5598 5600 5599 5600 5599 5599 5596 5593 5589 5586 5583 5579 5574 5570 5565 5558 5551 5543 5534 5529 5521 5510 5500 5495 5484 5466 5452 5437 5421 5409 5398 5387 5378 5366
5582 5583 5584 5586 5585 5587 5589 5588 5590 5586 5583 5580 5575 5573 5570 5565 5561 5555 5549 5541 5532 5525 5517 5506 5499 5488 5478 5469 5458 5444 5430 5416 5401 5392 5383 5374 5363 5352
5569 5571 5572 5574 5574 5577 5576 5578 5577 5573 5568 5567 5564 5562 5558 5553 5546 5539 5532 5524 5514 5505 5497 5487 5478 5468 5455 5444 5433 5420 5408 5400 5383 5375 5368 5359 5348 5336
5557 5559 5562 5564 5565 5565 5567 5566 5564 5559 5558 5556 5553 5551 5546 5540 5533 5526 5517 5508 5498 5486 5474 5466 5457 5445 5435 5417 5403 5395 5382 5375 5371 5361 5352 5344 5330 5317
5549 5552 5554 5554 5554 5555 5556 5554 5550 5549 5549 5546 5543 5539 5533 5526 5517 5508 5501 5493 5483 5473 5461 5446 5436 5422 5407 5391 5383 5372 5366 5359 5348 5342 5332 5326 5314 5301
5541 5544 5543 5543 5545 5546 5543 5541 5541 5539 5538 5535 5530 5524 5518 5510 5502 5493 5485 5477 5462 5456 5441 5428 5416 5405 5389 5373 5356 5356 5349 5342 5333 5322 5310 5304 5301 5289
5532 5533 5535 5535 5534 5535 5535 5533 5532 5529 5525 5520 5515 5510 5504 5496 5485 5480 5469 5460 5447 5433 5418 5403 5394 5384 5377 5371 5358 5335 5335 5325 5316 5305 5294 5288 5284 5280
5524 5524 5525 5525 5526 5525 5525 5523 5519 5515 5510 5505 5500 5494 5489 5482 5472 5462 5452 5440 5426 5413 5399 5385 5375 5368 5361 5355 5350 5335 5315 5311 5301 5293 5287 5280 5273 5268
5515 5515 5517 5517 5517 5516 5513 5509 5505 5501 5496 5492 5486 5480 5473 5465 5454 5443 5431 5418 5406 5394 5384 5373 5363 5355 5347 5340 5331 5321 5307 5294 5287 5282 5278 5275 5269 5265
5507 5507 5508 5508 5506 5504 5500 5495 5492 5488 5484 5478 5471 5464 5455 5445 5434 5422 5409 5398 5387 5378 5370 5361 5352 5343 5333 5325 5317 5307 5299 5290 5280 5274 5269 5268 5264 5262
5499 5499 5499 5497 5493 5491 5487 5483 5479 5474 5469 5463 5456 5447 5436 5425 5413 5403 5392 5383 5374 5366 5358 5350 5340 5330 5321 5313 5304 5297 5290 5284 5280 5274 5267 5263 5261 5260
Wind_Speed
57 57 58 58 57 57 56 56 57 59 58 56 57 62 65 67 71 71 71 71 65 65 59 56 53 55 59 64 64 64 66 73 77 74 68 65 62 62
61 60 60 59 60 59 60 60 62 60 58 60 61 68 69 73 77 73 72 64 62 62 58 56 57 62 63 63 65 69 73 73 70 67 66 66 67 66
59 58 60 62 63 63 65 64 63 61 67 73 73 73 77 76 72 69 62 59 62 58 56 59 62 63 65 66 67 72 71 71 71 70 70 72 71 70
63 64 62 64 66 64 61 60 63 71 71 73 75 79 73 64 63 58 57 57 57 58 61 65 68 66 65 69 73 70 71 72 72 71 73 75 76 77
57 59 66 63 72 68 75 80 73 73 71 73 73 53 53 56 56 56 55 55 59 63 64 64 63 66 66 68 70 70 72 71 72 73 76 78 78 80
54 39 38 41 42 42 49 46 49 47 49 51 51 51 53 52 52 53 56 58 60 61 65 63 61 66 66 67 70 71 71 72 76 78 79 80 83 87
49 46 43 47 45 51 53 54 54 58 53 50 51 54 52 50 53 55 56 58 57 60 57 62 64 68 68 70 71 72 74 76 79 79 82 87 90 91
48 50 49 54 55 54 53 54 58 54 53 55 55 51 50 51 54 57 56 54 54 59 60 64 66 68 69 70 72 75 77 78 80 85 89 92 93 91
58 52 53 59 55 55 56 56 55 52 53 54 50 49 50 50 49 49 51 53 57 61 63 64 68 67 69 72 75 76 77 81 86 91 92 92 91 90
55 56 54 55 56 58 61 48 48 47 47 46 49 50 50 50 47 50 54 57 61 65 65 65 66 68 71 74 75 78 83 87 91 92 93 92 90 86
53 55 56 55 56 55 53 45 43 44 44 46 49 53 51 48 51 54 57 60 63 65 67 67 69 69 69 72 77 82 86 90 90 89 90 87 81 74
63 61 60 56 53 54 50 46 46 48 49 54 54 46 46 52 54 56 59 61 63 63 68 68 69 71 68 72 77 83 86 90 90 89 86 78 71 68
60 62 64 63 58 50 45 45 45 51 51 49 44 45 50 55 56 57 59 61 64 67 69 70 71 75 79 81 81 82 84 86 86 81 73 68 66 67
49 51 49 47 42 43 41 41 44 42 43 43 44 50 54 53 54 57 60 63 66 68 70 73 74 78 81 82 82 82 84 81 76 69 65 62 63 65
40 39 37 35 33 37 43 45 49 44 41 43 47 49 50 52 54 57 62 65 67 70 72 75 77 81 83 85 85 83 81 69 66 65 62 61 62 64
27 27 30 35 40 41 42 39 38 37 41 44 45 46 49 53 57 60 63 66 69 73 76 78 79 81 83 85 81 73 69 64 61 61 61 60 62 61
27 32 34 34 33 35 36 34 33 37 39 40 43 47 49 53 57 61 65 67 71 73 75 79 81 83 84 78 68 64 63 62 64 62 63 61 56 52
30 32 31 31 32 33 30 31 34 35 37 40 42 47 52 56 59 64 67 69 71 74 77 80 81 79 70 64 66 63 64 64 63 64 63 58 47 40
29 29 29 28 26 26 29 29 31 33 36 41 47 52 55 59 63 67 68 71 75 78 80 79 75 69 62 57 58 66 64 64 64 59 56 50 40 32
26 24 24 24 25 26 28 30 32 37 42 47 51 56 61 64 67 69 72 75 78 79 76 71 65 62 60 60 58 58 65 63 58 53 47 36 30 33
24 23 24 25 26 28 30 33 38 42 46 51 56 61 64 67 70 73 76 78 77 74 67 62 61 60 60 59 57 58 59 57 53 47 38 23 19 24
24 25 26 28 29 31 34 38 43 48 52 56 61 65 69 73 75 76 77 76 70 63 60 58 58 58 58 57 57 56 50 43 41 38 34 19 12 14
26 28 30 31 34 36 40 44 49 53 57 62 66 71 73 75 77 78 75 70 61 58 56 55 55 54 54 55 55 49 43 36 29 26 28 22 11 5
Wind_Direction
246 248 251 253 255 257 260 263 265 268 272 276 280 283 286 289 292 296 298 296 294 296 294 291 289 290 294 296 297 299 302 303 303 302 301 299 298 296
245 247 250 254 256 259 262 265 267 270 275 277 280 281 285 287 290 292 294 291 292 294 291 287 289 293 296 296 297 301 302 302 300 299 300 298 297 295
249 255 258 258 259 262 264 268 273 275 281 281 278 279 282 287 289 289 291 288 290 288 286 287 293 295 297 298 300 303 302 301 302 300 300 297 296 296
249 252 256 259 262 264 269 273 276 277 277 275 278 285 291 285 287 288 289 287 288 288 290 292 295 297 298 299 302 300 302 301 299 300 298 298 297 297
252 255 252 262 259 264 265 268 274 273 279 281 282 281 280 282 285 286 287 291 289 291 293 295 299 299 298 300 300 299 298 299 297 296 298 299 298 298
250 247 255 261 259 267 261 271 280 281 284 280 276 282 286 286 286 288 290 291 292 293 294 296 297 296 297 296 297 296 297 299 300 300 299 300 301 301
238 247 253 259 259 262 266 276 277 282 274 275 278 283 283 285 286 287 289 291 291 291 292 293 295 294 295 296 297 299 300 300 301 302 303 303 304 303
240 244 250 255 257 258 273 275 276 275 271 277 281 283 281 283 283 285 287 286 288 291 291 293 294 294 296 298 300 301 302 302 304 305 305 306 305 304
251 244 255 258 258 264 276 277 276 274 282 283 279 279 278 277 282 284 285 288 289 290 292 293 293 297 301 302 303 303 304 306 307 307 307 306 304 304
254 250 258 261 267 270 274 271 273 277 277 275 276 276 279 283 287 287 288 290 293 292 292 292 296 300 302 303 304 305 307 308 308 308 307 306 304 304
252 255 257 259 266 271 271 270 271 271 269 269 270 277 288 291 287 288 292 293 292 293 295 299 300 302 304 305 307 307 308 308 307 307 306 305 304 303
248 252 261 266 267 273 268 269 270 269 265 266 276 288 291 289 290 292 292 292 293 297 300 302 304 305 306 307 308 308 308 308 308 308 307 305 304 303
251 251 257 262 267 267 268 269 269 267 271 278 289 292 291 290 292 292 294 296 300 303 304 305 306 308 310 310 309 307 306 307 307 306 304 305 304 302
250 252 253 256 258 262 262 265 267 273 282 288 293 292 290 291 293 297 301 304 305 306 306 307 309 309 310 310 309 309 308 308 305 304 305 304 303 302
248 254 253 253 255 259 264 266 271 279 290 292 291 290 293 297 301 303 305 307 308 308 309 310 310 311 311 311 310 309 309 307 304 306 305 305 303 302
239 243 251 258 261 264 265 274 280 286 287 287 291 295 299 302 306 308 309 311 311 311 311 311 311 312 311 311 312 311 309 307 306 306 306 307 305 303
247 253 254 259 265 268 269 276 286 288 290 294 298 302 307 310 311 312 313 312 313 311 311 312 312 313 314 314 312 310 308 309 309 310 309 309 307 303
250 255 261 264 266 270 280 286 285 289 296 301 307 313 314 313 313 314 314 313 313 311 312 314 314 315 315 315 312 310 310 310 312 313 311 310 309 301
253 256 259 263 271 277 278 283 289 297 304 312 316 316 316 315 316 314 313 312 313 315 314 315 315 315 314 313 310 309 311 313 315 313 312 312 310 297
255 260 265 268 272 275 281 289 297 306 312 315 316 317 318 317 315 313 312 314 315 316 316 315 314 313 312 312 312 311 313 316 315 314 314 315 306 296
257 260 265 267 271 281 290 297 304 308 312 314 315 316 315 314 313 313 314 315 316 316 314 312 312 312 312 313 315 317 317 317 316 317 319 318 289 278
259 261 264 270 277 286 295 301 305 309 310 312 313 314 314 313 312 313 314 314 314 312 311 311 311 311 312 316 318 319 318 317 317 318 320 329 290 283
256 262 269 276 286 291 297 302 306 308 310 311 311 311 311 312 313 314 313 311 310 310 309 309 310 312 315 319 320 319 318 317 315 313 311 323 318 304